Weather History for Alexandria, LA

Change the Weather History Date:

Sunday, November 13, 2011

  Actual Average Record
Temperature  
Mean Temperature 70 °F 58 °F  
Max Temperature 80 °F 70 °F 87 °F (1955)
Min Temperature 59 °F 46 °F 27 °F (1911)
Degree Days  
Heating Degree Days 0 8  
Month to date heating degree days 93 78  
Since 1 July heating degree days 197 151  
Cooling Degree Days 4    
Growing Degree Days 19 (Base 50)    
Moisture  
Dew Point 60 °F    
Average Humidity 74    
Maximum Humidity 93    
Minimum Humidity 54    
Precipitation  
Precipitation 0.00 in 0.18 in 3.38 in (1957)
Month to date precipitation 0.56 1.76  
Year to date precipitation 26.99 46.07  
Snow  
Snow 0.00 in - 0.00 in ()
Month to date snowfall 0.0  
Since 1 July snowfall 0.0  
Since 1 September snowfall 0.0  
Snow Depth 0.00 in    
Sea Level Pressure  
Sea Level Pressure 29.98 in    
Wind  
Wind Speed 10 mph (SSE)    
Max Wind Speed 23 mph    
Max Gust Speed 28 mph    
Visibility 10 miles    
Events      
T = Trace of Precipitation, MM = Missing Value Source: NWS Daily Summary

Daily Weather History Graph

Daily Weather History Graph

Search for Another Location

Airport:

Trip Planner

Search our weather history database for the weather conditions in past years. The results will help you decide how hot, cold, wet, or windy it might be!

Date:

Astronomy

Nov. 13, 2011 Rise Set
Actual Time 6:35 AM CST 5:12 PM CST
Civil Twilight 6:10 AM CST 5:38 PM CST
Nautical Twilight 5:40 AM CST 6:07 PM CST
Astronomical Twilight 5:12 AM CST 6:36 PM CST
Moon 7:28 PM CST (11/13) 9:02 AM CST (11/13)
Length of Visible Light 11h 28m
Length of Day
10h 37m
Waning Gibbous, 92% of the Moon is Illuminated
Nov 13
Waning Gibbous
Nov 18
Last Quarter
Nov 25
New
Dec 2
First Quarter
Dec 10
Full

Hourly Weather History & Observations

Time (CST) Temp. Dew Point Humidity Pressure Visibility Wind Dir Wind Speed Gust Speed Precip Events Conditions
12:53 AM 60.1 °F 55.0 °F 83% 30.02 in 10.0 mi SSE 5.8 mph - N/A   Mostly Cloudy
1:53 AM 60.1 °F 55.9 °F 86% 30.01 in 10.0 mi SE 9.2 mph - N/A   Partly Cloudy
2:53 AM 60.1 °F 55.9 °F 86% 30.01 in 10.0 mi SSE 8.1 mph - N/A   Mostly Cloudy
3:53 AM 61.0 °F 57.0 °F 87% 30.00 in 10.0 mi SSE 8.1 mph - N/A   Overcast
4:53 AM 60.1 °F 57.0 °F 90% 30.01 in 10.0 mi SE 5.8 mph - N/A   Mostly Cloudy
5:53 AM 60.1 °F 57.0 °F 90% 30.02 in 10.0 mi SSE 5.8 mph - N/A   Overcast
6:53 AM 59.0 °F 57.0 °F 93% 30.01 in 9.0 mi SE 9.2 mph - N/A   Partly Cloudy
7:53 AM 63.0 °F 59.0 °F 87% 30.03 in 10.0 mi SSE 8.1 mph - N/A   Overcast
8:53 AM 66.0 °F 59.0 °F 78% 30.03 in 10.0 mi SSE 8.1 mph - N/A   Mostly Cloudy
9:53 AM 73.9 °F 61.0 °F 64% 30.01 in 10.0 mi South 12.7 mph 23.0 mph N/A   Mostly Cloudy
10:53 AM 77.0 °F 61.0 °F 58% 30.00 in 10.0 mi South 15.0 mph 26.5 mph N/A   Mostly Cloudy
11:53 AM 78.1 °F 61.0 °F 56% 29.98 in 10.0 mi South 16.1 mph 23.0 mph N/A   Overcast
12:53 PM 79.0 °F 61.0 °F 54% 29.94 in 10.0 mi South 19.6 mph 25.3 mph N/A   Overcast
1:53 PM 78.1 °F 61.0 °F 56% 29.92 in 10.0 mi South 15.0 mph 24.2 mph N/A   Mostly Cloudy
2:53 PM 79.0 °F 61.0 °F 54% 29.92 in 10.0 mi South 16.1 mph 23.0 mph N/A   Mostly Cloudy
3:53 PM 75.9 °F 62.1 °F 62% 29.91 in 10.0 mi South 16.1 mph 21.9 mph N/A   Mostly Cloudy
4:53 PM 73.9 °F 62.1 °F 66% 29.93 in 10.0 mi South 9.2 mph - N/A   Mostly Cloudy
5:53 PM 73.9 °F 62.1 °F 66% 29.94 in 10.0 mi South 8.1 mph - N/A   Overcast
6:53 PM 73.0 °F 61.0 °F 66% 29.96 in 10.0 mi South 11.5 mph - N/A   Overcast
7:53 PM 71.1 °F 61.0 °F 70% 29.96 in 10.0 mi South 9.2 mph - N/A   Partly Cloudy
8:53 PM 66.0 °F 60.1 °F 81% 29.97 in 10.0 mi SSE 5.8 mph - N/A   Clear
9:53 PM 66.0 °F 61.0 °F 84% 29.96 in 10.0 mi SSE 6.9 mph - N/A   Clear
10:53 PM 64.9 °F 61.0 °F 87% 29.97 in 10.0 mi SSE 6.9 mph - N/A   Clear
11:53 PM 66.0 °F 62.1 °F 87% 29.96 in 10.0 mi SSE 8.1 mph - N/A   Clear